Temperature
15 15 15 16 17 17 19 22 24 24 24 24 24 24 23 21 21 18 16 17 16 16 16 16 16 16 17 17 17 17 17 17 17 17 17 17 16 16 16 16 16 16 16 16 16 16 16 16 16
14 15 16 17 17 18 20 22 23 24 23 22 23 23 22 20 18 17 16 16 16 15 16 16 16 16 16 16 16 16 16 16 16 16 16 16 16 16 16 16 16 16 16 16 16 16 16 16 16
14 15 17 17 18 19 22 23 23 23 22 22 22 22 21 19 18 16 16 16 16 15 15 16 16 16 16 16 16 16 16 16 16 16 16 16 16 16 16 16 16 16 16 16 16 16 16 16 16
14 15 17 18 19 21 22 23 22 22 22 22 21 20 19 18 17 16 16 16 15 15 15 15 16 16 16 16 16 16 16 16 16 16 16 16 16 16 16 16 15 15 15 16 16 16 16 16 16
15 16 17 17 19 21 23 23 22 22 21 22 21 20 18 17 17 16 16 16 15 15 15 15 15 15 16 16 16 16 16 16 16 16 16 16 15 15 15 15 15 15 15 15 15 15 15 15 15
15 17 17 18 20 21 22 23 23 22 21 22 21 19 17 17 16 16 15 15 15 15 15 15 15 15 15 15 15 15 15 15 15 15 15 15 15 15 15 15 15 15 15 15 15 15 15 15 15
16 16 17 19 20 21 22 23 22 21 21 21 21 19 17 16 16 15 15 15 15 15 14 14 14 15 15 15 15 15 15 15 15 15 15 15 15 15 15 15 14 14 14 14 14 14 14 14 15
16 17 18 19 20 21 21 21 21 21 20 20 20 19 17 16 15 15 15 15 14 14 14 14 14 14 14 14 15 14 14 14 14 14 14 14 14 14 14 14 14 14 14 14 14 14 14 14 14
15 15 17 19 20 20 21 20 20 19 19 19 19 18 17 16 15 15 14 14 14 14 14 14 14 14 14 14 14 14 14 14 14 14 14 13 13 13 13 13 13 13 13 13 13 13 13 13 14
15 14 17 19 20 19 20 19 19 19 18 18 17 17 16 15 15 14 14 14 14 13 13 13 13 13 14 14 14 14 13 13 13 13 13 13 13 13 13 13 13 13 13 13 13 13 13 13 13
15 15 17 18 19 19 18 19 19 18 17 18 17 16 16 15 15 14 14 14 14 13 13 13 13 13 13 13 13 13 13 13 13 13 12 12 12 12 12 12 12 12 12 12 12 12 12 12 12
16 16 17 17 17 17 17 18 18 18 18 18 17 16 15 15 15 15 14 14 14 13 13 13 13 13 13 13 13 13 12 12 12 12 12 12 12 12 12 12 12 12 12 12 12 12 12 12 12
15 16 16 16 16 16 16 16 16 16 17 17 16 16 15 15 15 15 14 14 13 13 13 13 13 13 13 12 12 12 12 12 12 12 12 12 11 11 11 11 11 11 11 11 11 11 11 11 11
16 16 16 16 16 16 16 15 15 16 16 16 16 16 15 15 15 14 14 14 13 13 12 12 12 12 12 12 12 12 12 12 12 11 11 11 11 11 11 11 11 11 11 11 10 10 10 10 10
15 14 15 15 15 16 15 14 15 16 16 16 16 15 15 15 15 14 14 13 13 13 12 12 12 12 12 12 12 12 12 11 11 11 11 11 11 11 11 10 10 10 10 10 10 10 10 10 10
14 14 13 15 15 15 14 13 15 16 16 16 16 16 15 15 14 14 14 13 13 12 12 12 12 12 12 11 11 11 11 11 11 11 10 10 10 10 10 10 10 10 10 10 9 9 9 9 9
13 12 13 15 16 15 13 13 15 16 16 16 16 16 15 15 14 14 13 13 12 12 12 12 12 11 11 11 11 11 11 11 11 10 10 10 10 10 10 10 10 10 10 9 9 9 9 9 9
12 13 14 14 15 15 13 13 14 16 16 16 16 16 15 15 14 14 13 12 12 12 12 11 11 11 11 11 11 11 10 10 10 10 10 10 10 10 10 10 9 9 9 9 9 9 8 8 8
14 14 14 14 15 14 13 13 14 15 15 15 16 16 15 15 14 14 13 12 12 11 11 11 11 11 11 11 10 10 10 10 10 10 10 10 10 9 9 9 9 9 8 8 8 8 8 8 8
13 13 13 13 14 14 13 13 14 14 14 15 15 16 15 15 14 13 12 12 11 11 11 11 10 10 10 10 10 10 10 10 10 9 9 9 9 9 9 9 9 8 8 8 8 8 8 8 7
13 13 13 13 13 13 13 12 13 14 15 15 16 15 15 15 14 13 12 11 11 11 10 10 10 10 10 10 10 9 9 9 9 9 9 9 9 9 9 8 8 8 8 8 8 7 7 7 7
12 13 13 13 11 11 12 10 13 14 14 14 15 15 15 14 14 13 12 11 11 10 10 10 10 9 9 9 9 9 9 9 9 9 9 9 8 8 8 8 8 8 8 7 7 7 7 7 7
12 13 13 12 11 11 11 10 12 13 13 13 14 15 15 14 13 12 12 11 10 10 10 9 9 9 9 9 9 9 9 9 9 8 8 8 8 8 8 8 8 8 7 7 7 7 7 7 7
12 12 12 11 10 9 11 11 11 12 13 13 13 14 14 13 13 12 11 11 10 10 9 9 9 9 9 8 8 8 8 8 8 8 8 8 8 8 8 7 7 7 7 7 7 7 7 6 6
11 9 8 8 8 9 12 12 12 13 13 13 13 13 13 12 12 11 10 10 9 9 9 8 8 8 8 8 8 8 8 8 8 8 7 7 7 7 7 7 7 7 7 7 7 7 6 6 6
9 10 9 9 9 10 12 11 12 13 13 13 13 13 12 11 11 10 10 9 9 9 8 8 8 8 8 8 8 8 8 8 8 7 7 7 7 7 7 7 7 7 7 6 6 6 6 6 6
9 9 10 10 10 10 10 12 11 12 12 12 12 11 11 11 10 10 9 9 8 8 8 8 8 8 8 7 7 8 8 7 7 7 7 7 7 7 7 7 7 7 7 6 6 6 6 6 6
8 9 8 8 9 10 12 12 10 10 10 10 10 10 10 10 10 9 9 8 8 8 7 7 7 7 7 7 7 7 7 7 7 7 7 7 7 7 7 7 7 7 6 6 6 6 6 6 5
7 8 8 8 9 9 11 11 11 10 10 10 10 10 10 9 9 8 8 8 7 7 7 7 7 7 7 7 7 7 7 7 7 7 6 6 6 6 6 6 6 6 6 6 6 6 6 5 5
7 8 7 7 7 8 9 9 11 10 10 10 9 10 9 9 8 8 7 7 7 7 7 7 7 7 7 7 6 7 7 7 7 7 6 6 6 6 6 6 6 6 6 6 6 6 6 5 5
Wind_Speed
9 11 9 4 4 6 9 8 5 1 3 5 7 5 4 5 5 9 5 6 10 12 13 13 12 12 11 11 11 11 11 10 9 9 9 9 8 7 7 6 6 6 6 5 5 5 5 5 5
10 9 6 4 5 7 8 10 6 3 7 6 6 4 4 6 8 9 6 7 10 12 13 12 12 11 11 11 11 10 10 9 9 8 8 8 8 7 6 6 5 5 5 5 4 4 4 4 4
11 9 4 4 6 7 5 4 5 8 8 5 2 3 2 5 8 6 7 7 10 12 13 12 12 11 11 11 10 10 9 8 8 7 7 7 7 7 6 5 5 4 4 4 4 3 3 3 3
6 4 5 7 12 9 6 3 8 7 5 4 4 4 4 7 5 8 8 7 10 11 13 13 12 11 10 10 9 9 8 7 7 7 6 6 5 5 5 5 5 4 3 2 3 2 2 1 2
5 4 6 8 13 9 5 2 7 5 5 5 5 4 6 6 10 10 8 7 9 10 12 12 12 10 9 9 8 8 7 7 6 6 5 5 4 4 4 4 4 3 3 2 2 2 1 1 0
4 5 7 11 11 9 6 3 4 5 4 5 6 4 6 8 9 8 7 7 8 9 10 11 11 10 9 8 8 7 6 6 5 5 4 3 3 3 3 3 3 3 2 2 2 2 2 1 1
5 5 9 11 8 7 5 4 4 5 4 4 4 4 7 9 8 7 6 6 8 9 9 8 9 9 8 7 7 6 5 4 4 4 3 3 2 2 2 2 2 2 2 2 2 2 2 2 3
5 5 8 10 9 5 2 3 1 0 1 1 2 3 7 9 9 7 6 6 7 7 7 7 7 7 6 6 6 5 4 4 3 3 2 2 2 2 2 2 2 2 2 2 2 2 3 3 4
4 5 7 7 6 2 5 3 2 4 2 2 3 5 9 12 9 7 6 6 6 6 5 5 5 5 5 4 5 5 4 3 3 2 2 2 1 2 1 1 1 2 3 3 3 3 4 4 4
5 6 7 4 4 2 4 3 3 3 3 3 4 7 10 10 9 8 7 6 6 5 5 4 4 4 4 3 3 3 3 2 2 2 1 1 1 1 1 1 2 2 3 4 4 4 4 3 2
7 6 5 5 5 4 2 0 2 4 5 6 8 9 10 9 8 7 6 6 6 6 5 4 4 4 3 2 2 1 2 1 1 1 1 1 1 1 1 1 1 2 3 2 3 3 2 3 2
8 7 6 4 3 2 1 2 3 5 4 2 5 8 8 8 8 7 6 6 5 6 5 5 4 3 3 2 1 1 1 1 1 1 1 1 1 0 0 1 1 1 1 1 1 2 2 3 3
12 7 6 3 2 2 3 5 4 5 3 0 3 7 7 7 7 5 5 5 5 5 5 5 4 3 2 2 1 1 1 1 1 1 1 1 1 1 0 0 1 1 1 1 1 2 2 3 3
6 6 6 5 5 5 6 7 6 7 5 5 6 8 8 8 7 6 5 5 5 5 5 5 4 3 2 2 1 1 1 1 1 0 1 1 1 0 0 1 1 1 1 1 2 3 3 3 3
3 5 7 8 9 6 5 8 10 10 8 8 8 8 9 8 7 7 6 6 6 6 5 5 4 4 3 2 1 1 1 0 0 0 1 1 1 0 0 1 1 1 2 2 2 3 2 3 3
5 6 7 8 10 8 7 9 7 9 11 10 9 8 8 8 8 7 6 5 5 5 5 4 3 3 3 2 1 1 1 1 1 1 1 1 1 1 0 1 1 1 2 1 2 2 2 3 3
8 8 9 6 9 8 9 7 5 5 7 8 8 8 8 8 8 7 6 6 5 5 5 4 4 3 2 1 1 1 1 1 1 1 1 1 1 1 1 1 1 1 1 1 2 2 2 3 3
9 9 9 8 8 9 9 8 6 6 7 8 8 8 8 8 8 7 7 6 5 5 5 4 4 4 3 2 1 1 1 1 1 1 1 1 1 2 1 1 1 1 1 1 2 2 2 3 4
7 8 8 4 2 6 9 9 9 8 9 9 9 8 8 8 7 7 7 7 6 5 5 4 4 3 3 2 1 1 1 1 1 1 1 2 2 2 1 1 1 1 2 2 2 2 3 3 3
10 9 7 3 2 5 7 10 9 10 11 11 10 9 8 7 7 7 7 7 6 6 5 5 4 3 3 2 2 2 2 2 2 2 2 2 2 2 2 2 2 2 2 3 2 2 2 3 2
11 9 7 4 3 6 6 8 10 10 12 11 10 9 8 8 8 8 7 6 6 5 5 4 4 4 3 3 2 1 1 1 1 1 2 3 3 3 3 3 2 3 3 3 4 3 4 3 3
9 6 6 4 3 4 5 5 6 7 8 10 10 9 8 7 7 8 7 7 6 5 5 4 4 4 3 3 3 3 2 2 2 2 2 2 3 3 3 3 3 3 3 4 4 4 4 3 3
4 1 3 4 5 5 6 5 6 7 8 10 9 8 7 6 7 7 7 6 6 5 5 4 4 3 3 3 3 3 2 2 2 1 2 2 2 2 3 3 3 3 4 4 4 4 4 3 4
2 1 1 3 3 6 9 8 6 6 9 8 8 7 6 5 5 6 6 5 5 5 5 4 4 3 3 3 3 3 3 2 2 2 2 2 2 2 2 3 3 4 4 4 4 4 5 4 4
5 4 2 3 5 7 7 7 5 2 3 5 6 6 6 5 5 5 5 5 5 5 5 5 5 4 3 3 3 3 3 3 2 2 2 2 2 2 3 3 3 3 4 4 4 4 5 5 4
7 7 5 5 6 4 5 7 3 2 4 5 6 6 6 5 4 4 4 5 5 5 5 5 5 4 4 3 3 3 2 2 2 2 2 3 2 3 3 3 3 4 4 4 4 3 4 4 4
5 7 4 3 3 3 6 4 2 2 4 5 5 6 5 4 4 3 4 4 4 5 5 5 4 3 3 3 3 3 2 2 2 2 2 2 2 2 3 3 3 3 3 3 3 3 4 4 4
3 3 3 3 4 5 6 6 4 6 5 5 5 5 4 4 4 4 3 3 3 3 3 3 3 3 2 3 3 2 2 2 2 2 2 2 2 2 3 3 2 2 3 3 3 3 3 3 3
4 3 3 3 4 3 4 2 1 5 6 6 5 5 4 3 3 3 3 3 3 2 2 2 2 2 2 2 2 2 2 2 1 2 2 2 2 1 2 2 2 2 2 2 3 3 3 3 3
3 4 4 3 4 4 3 1 4 7 7 6 5 5 5 4 3 3 3 3 2 2 2 1 2 2 2 2 2 2 2 1 1 2 2 2 1 1 2 2 2 2 2 2 2 3 2 2 3
Wind_Direction
265 245 233 228 227 232 240 242 242 119 49 32 27 25 33 27 41 114 157 110 108 111 109 106 100 96 95 95 92 90 87 83 79 77 74 73 72 71 70 71 66 67 69 65 61 59 67 77 76
268 239 226 229 236 234 234 225 230 133 96 65 31 21 49 73 82 106 114 108 111 109 107 108 103 98 96 95 94 91 89 85 81 78 75 70 67 65 63 64 61 63 65 63 58 54 57 67 77
263 240 225 225 230 237 248 162 116 90 92 104 95 11 28 81 98 110 123 127 113 108 107 109 107 101 98 96 93 91 89 85 81 78 75 70 66 62 59 59 58 58 60 59 52 43 45 57 72
236 216 242 241 242 243 266 89 94 97 105 129 141 109 76 52 80 110 126 124 112 110 106 112 110 105 102 100 97 92 87 84 81 76 73 69 65 60 56 53 54 53 51 54 41 23 23 56 57
240 228 227 237 245 253 262 98 116 138 150 166 166 134 102 84 96 112 124 118 112 109 108 116 114 110 105 104 99 95 90 85 81 77 72 67 58 54 50 44 43 43 40 42 24 360 340 330 295
225 235 230 231 233 234 229 177 157 165 175 169 161 151 116 126 116 119 122 119 113 113 113 118 115 111 107 107 103 99 94 89 83 77 68 61 53 49 45 37 33 29 31 34 19 351 319 296 274
240 244 247 250 241 230 200 147 179 177 179 178 151 144 132 132 124 127 124 116 109 109 113 114 115 112 108 109 108 102 97 93 88 82 70 56 53 44 36 28 24 16 10 0 350 343 324 286 274
259 268 250 249 246 244 131 115 94 101 142 57 83 152 139 136 131 131 125 113 106 107 114 117 113 109 105 109 118 114 111 108 101 95 81 67 62 45 30 18 1 348 338 328 318 308 303 296 277
263 254 249 244 243 218 113 115 89 43 49 37 50 59 112 128 134 135 131 119 115 114 113 115 114 103 102 110 123 124 124 126 118 109 90 62 55 57 42 333 316 315 310 304 297 291 291 290 280
218 240 247 293 338 38 109 125 146 146 166 179 129 101 117 134 146 154 155 149 141 136 127 115 111 110 104 111 120 134 140 147 142 125 112 74 44 32 356 308 291 291 295 292 290 288 288 286 277
213 237 258 297 359 20 35 170 206 198 206 192 169 152 147 152 161 169 167 156 147 137 123 112 110 103 98 92 108 120 129 145 145 150 121 97 82 30 33 56 318 289 282 282 287 284 270 268 251
230 244 259 285 346 359 280 254 251 236 232 171 149 144 149 163 173 178 173 158 145 135 127 120 114 107 105 93 96 111 107 116 104 125 133 112 84 46 40 70 2 332 302 297 292 264 266 270 261
230 244 258 267 261 255 259 248 254 248 246 136 136 153 168 179 184 179 165 146 138 137 130 129 129 130 132 128 159 124 125 113 121 146 147 113 110 192 332 354 341 325 308 297 294 289 269 265 265
228 233 242 242 235 228 229 237 235 230 205 192 180 176 182 188 184 178 169 163 156 148 144 137 138 140 136 146 166 167 151 136 125 119 166 158 112 103 292 290 302 307 304 295 288 285 284 273 270
239 247 247 232 225 211 215 241 228 221 211 202 192 186 186 187 183 181 174 169 161 156 150 146 151 141 150 160 181 155 165 132 149 176 196 149 103 144 198 249 267 297 303 302 307 295 296 290 285
227 227 231 215 206 194 200 241 225 206 203 203 200 192 189 188 186 179 170 164 155 151 146 146 146 147 160 160 182 188 182 177 196 203 195 179 220 256 283 227 247 278 303 308 297 290 302 294 286
213 225 226 217 196 177 203 239 230 198 200 204 201 197 194 188 184 175 165 159 155 152 143 144 144 150 152 171 202 202 196 196 206 189 164 229 246 245 255 233 246 265 277 284 289 308 294 292 289
207 219 224 216 192 189 214 232 230 228 219 213 207 202 199 189 184 168 163 156 152 144 138 141 147 155 154 171 205 212 212 224 209 188 191 229 258 257 241 232 257 285 269 280 277 280 286 279 278
249 246 251 254 198 204 230 238 233 228 230 223 215 207 200 191 173 159 159 154 150 144 143 152 159 166 159 169 191 203 219 239 239 215 218 237 244 246 231 239 240 253 250 255 262 278 284 288 291
256 252 252 269 221 237 246 252 241 230 229 225 215 207 198 186 168 161 159 153 157 153 152 161 168 172 171 173 195 206 226 234 231 226 226 232 221 234 248 223 226 232 250 257 253 257 264 274 280
238 240 240 240 263 272 270 266 235 227 225 224 215 207 202 186 172 166 163 157 157 156 158 171 178 179 176 172 177 206 243 281 255 249 235 230 219 221 231 225 225 228 233 242 243 239 246 261 265
238 247 244 228 221 239 208 268 240 218 218 212 207 204 201 182 170 166 164 163 163 160 159 169 179 180 176 172 179 187 209 236 254 245 249 253 230 219 225 230 230 228 233 242 244 246 247 246 257
238 266 236 227 239 263 232 251 263 204 218 212 198 193 185 174 166 162 160 161 160 156 161 171 176 178 179 185 186 192 216 239 254 254 251 261 256 237 231 238 236 233 238 240 239 245 246 243 247
193 187 228 240 243 254 222 217 258 213 209 195 180 170 158 149 148 145 143 141 149 152 158 170 174 184 187 189 190 191 203 227 250 269 259 265 268 264 248 251 249 245 241 239 237 236 238 240 243
203 168 170 194 215 239 207 208 241 207 160 152 151 144 136 137 131 126 134 151 160 163 167 175 177 187 188 190 199 207 205 209 224 251 264 272 279 280 260 259 253 255 245 238 238 240 240 238 237
216 206 190 194 212 230 208 219 217 123 94 99 108 110 115 115 116 128 145 154 165 170 172 178 185 186 188 195 208 211 204 209 228 244 258 257 261 265 261 255 255 252 250 249 240 244 243 237 232
202 228 255 263 267 250 225 212 171 119 112 109 109 112 117 121 123 130 135 144 162 171 180 187 186 187 191 195 204 211 206 211 226 239 252 263 269 277 275 266 257 251 247 247 240 238 241 233 233
268 232 205 208 217 238 225 210 208 180 165 139 128 128 125 124 120 127 129 134 145 162 175 181 182 188 196 195 206 224 215 214 224 237 246 249 261 271 269 274 270 266 251 245 243 241 235 231 234
216 223 220 219 249 236 237 219 42 138 137 130 122 120 113 108 114 112 111 113 119 130 161 181 184 186 196 204 212 219 227 223 229 242 256 249 251 254 264 272 271 269 258 250 242 241 237 229 233
244 217 195 196 245 244 262 251 43 82 92 96 95 95 101 93 96 95 94 90 86 111 142 176 185 193 205 214 219 211 217 213 234 255 263 260 247 252 253 271 281 281 281 265 241 253 249 237 237
Height
1483 1485 1488 1492 1494 1492 1485 1470 1460 1460 1462 1465 1466 1468 1472 1477 1481 1493 1495 1495 1495 1496 1497 1499 1500 1502 1503 1505 1506 1507 1508 1510 1510 1511 1512 1513 1514 1514 1515 1515 1516 1517 1517 1518 1518 1519 1519 1520 1520
1482 1486 1490 1491 1491 1491 1479 1465 1462 1461 1464 1468 1470 1472 1475 1480 1484 1489 1492 1494 1495 1496 1497 1498 1500 1502 1503 1505 1506 1507 1508 1509 1510 1511 1512 1513 1513 1514 1514 1515 1515 1516 1516 1517 1517 1518 1518 1519 1519
1482 1486 1489 1486 1484 1480 1469 1457 1459 1462 1467 1471 1474 1476 1479 1483 1486 1488 1491 1494 1495 1496 1497 1498 1500 1502 1503 1504 1506 1507 1508 1509 1510 1510 1511 1512 1512 1513 1513 1513 1514 1514 1515 1515 1516 1516 1517 1517 1518
1484 1487 1487 1484 1478 1468 1461 1458 1460 1465 1469 1472 1475 1479 1482 1485 1487 1488 1491 1494 1495 1496 1496 1498 1500 1501 1503 1504 1505 1506 1507 1508 1509 1510 1510 1511 1511 1512 1512 1512 1512 1513 1513 1514 1514 1515 1515 1516 1516
1484 1484 1483 1480 1473 1464 1458 1458 1461 1466 1470 1472 1475 1479 1483 1486 1487 1489 1492 1494 1495 1495 1496 1498 1499 1501 1502 1503 1504 1506 1506 1507 1508 1508 1509 1509 1510 1510 1511 1511 1511 1511 1512 1512 1512 1513 1513 1514 1515
1483 1479 1480 1477 1468 1461 1458 1459 1462 1466 1469 1472 1474 1478 1484 1486 1487 1490 1492 1494 1495 1495 1496 1497 1499 1500 1501 1503 1504 1504 1505 1506 1507 1507 1508 1508 1508 1509 1509 1509 1509 1509 1510 1510 1510 1511 1511 1512 1512
1481 1477 1474 1468 1464 1459 1456 1458 1462 1465 1469 1471 1473 1477 1483 1485 1487 1489 1492 1493 1494 1495 1496 1497 1498 1499 1501 1502 1503 1503 1504 1505 1505 1506 1506 1506 1507 1507 1507 1507 1507 1507 1508 1508 1508 1509 1509 1509 1510
1477 1474 1469 1465 1463 1459 1456 1459 1463 1466 1469 1471 1473 1476 1480 1484 1486 1489 1491 1493 1494 1495 1496 1496 1497 1498 1499 1500 1501 1502 1502 1503 1503 1504 1504 1504 1505 1505 1505 1505 1505 1505 1505 1506 1506 1506 1506 1507 1507
1476 1476 1469 1462 1459 1457 1457 1461 1465 1468 1470 1472 1474 1476 1478 1481 1485 1488 1490 1492 1493 1494 1495 1495 1496 1497 1498 1499 1500 1500 1501 1501 1502 1502 1502 1502 1502 1503 1503 1503 1503 1503 1503 1503 1503 1504 1504 1504 1504
1473 1473 1465 1459 1456 1457 1459 1462 1466 1469 1471 1473 1475 1477 1479 1481 1484 1487 1489 1490 1492 1493 1494 1494 1495 1496 1496 1497 1498 1498 1499 1499 1500 1500 1500 1500 1500 1501 1501 1501 1501 1501 1501 1501 1501 1501 1501 1501 1501
1468 1466 1462 1460 1459 1459 1461 1464 1466 1468 1471 1471 1473 1476 1478 1481 1483 1486 1488 1489 1491 1492 1492 1493 1494 1494 1495 1495 1496 1497 1497 1498 1498 1498 1498 1499 1499 1499 1499 1499 1498 1498 1498 1498 1498 1498 1498 1498 1498
1464 1462 1462 1461 1461 1462 1464 1465 1467 1467 1469 1470 1471 1473 1476 1479 1482 1484 1486 1488 1489 1490 1490 1491 1492 1492 1493 1494 1494 1495 1495 1496 1496 1496 1497 1497 1497 1497 1497 1496 1496 1496 1496 1495 1495 1495 1495 1495 1495
1462 1461 1462 1462 1462 1464 1465 1466 1467 1466 1468 1469 1470 1472 1475 1477 1480 1482 1484 1486 1487 1488 1489 1489 1490 1491 1491 1492 1492 1493 1493 1494 1494 1495 1495 1495 1495 1495 1494 1494 1494 1494 1493 1493 1493 1493 1492 1492 1492
1459 1460 1461 1462 1462 1463 1465 1465 1466 1463 1466 1467 1469 1471 1473 1475 1477 1479 1481 1483 1484 1485 1486 1487 1488 1489 1489 1490 1490 1491 1491 1492 1492 1493 1493 1493 1493 1493 1492 1492 1491 1491 1491 1490 1490 1490 1490 1489 1489
1459 1460 1460 1459 1460 1461 1464 1464 1461 1461 1463 1464 1466 1468 1470 1473 1475 1476 1478 1480 1481 1483 1484 1485 1485 1486 1487 1488 1488 1489 1489 1489 1490 1490 1491 1491 1491 1491 1490 1490 1489 1489 1489 1488 1488 1487 1487 1486 1486
1459 1461 1462 1455 1455 1457 1464 1463 1456 1456 1458 1460 1463 1465 1467 1469 1472 1474 1475 1477 1479 1480 1481 1482 1483 1484 1485 1485 1486 1486 1487 1487 1487 1488 1488 1488 1488 1488 1488 1487 1487 1487 1486 1486 1485 1484 1484 1483 1483
1459 1460 1457 1453 1450 1453 1459 1458 1453 1453 1455 1457 1459 1461 1464 1466 1468 1470 1472 1474 1476 1477 1478 1479 1480 1481 1482 1483 1483 1484 1484 1485 1485 1485 1486 1486 1486 1485 1485 1485 1485 1484 1484 1483 1482 1482 1481 1480 1480
1456 1453 1450 1450 1447 1450 1455 1454 1452 1452 1453 1454 1455 1458 1460 1462 1464 1466 1469 1471 1473 1474 1475 1476 1477 1478 1479 1480 1480 1481 1482 1482 1482 1483 1483 1483 1483 1483 1482 1482 1482 1481 1481 1480 1480 1479 1478 1478 1477
1446 1447 1447 1446 1445 1449 1451 1451 1450 1449 1450 1450 1451 1453 1456 1458 1460 1463 1465 1467 1469 1470 1471 1472 1474 1475 1475 1476 1477 1477 1478 1479 1479 1480 1480 1480 1480 1480 1479 1479 1479 1478 1477 1477 1477 1476 1476 1475 1475
1445 1447 1448 1448 1446 1447 1449 1447 1445 1444 1444 1445 1446 1448 1451 1454 1457 1459 1462 1464 1465 1467 1468 1469 1470 1471 1472 1473 1474 1475 1476 1476 1477 1477 1477 1477 1477 1477 1476 1476 1475 1475 1474 1474 1474 1473 1472 1472 1472
1444 1446 1446 1448 1449 1448 1450 1448 1441 1437 1437 1439 1441 1443 1446 1449 1452 1455 1458 1460 1461 1463 1464 1465 1467 1468 1469 1470 1471 1472 1473 1473 1473 1473 1474 1474 1474 1474 1473 1473 1472 1472 1471 1471 1470 1470 1470 1469 1469
1445 1442 1442 1447 1454 1455 1452 1456 1438 1433 1433 1433 1435 1438 1441 1445 1448 1451 1453 1455 1457 1459 1461 1462 1463 1465 1466 1467 1467 1468 1468 1469 1469 1470 1470 1470 1470 1470 1470 1469 1469 1468 1468 1467 1467 1467 1466 1466 1466
1441 1441 1443 1446 1451 1454 1451 1456 1440 1431 1433 1431 1431 1434 1437 1441 1444 1447 1449 1452 1454 1456 1457 1459 1460 1462 1463 1463 1464 1465 1466 1466 1467 1467 1467 1467 1467 1466 1466 1466 1465 1465 1464 1464 1464 1463 1463 1463 1462
1441 1444 1446 1448 1453 1459 1447 1451 1440 1430 1426 1426 1428 1431 1434 1438 1441 1444 1446 1449 1451 1453 1454 1456 1457 1458 1460 1460 1461 1462 1462 1463 1463 1463 1463 1463 1463 1463 1462 1462 1461 1461 1460 1460 1460 1459 1459 1459 1459
1442 1450 1458 1460 1461 1454 1435 1438 1434 1424 1420 1421 1425 1428 1432 1436 1439 1441 1443 1445 1447 1449 1451 1453 1454 1455 1457 1458 1458 1459 1460 1460 1460 1460 1460 1460 1459 1459 1458 1458 1458 1457 1456 1456 1456 1455 1455 1455 1455
1442 1443 1451 1454 1451 1442 1433 1435 1429 1421 1420 1421 1424 1428 1431 1435 1437 1439 1441 1443 1445 1446 1448 1449 1451 1452 1454 1455 1455 1456 1457 1457 1457 1457 1457 1457 1456 1455 1455 1455 1454 1453 1453 1452 1452 1451 1451 1451 1450
1441 1441 1438 1442 1439 1441 1434 1425 1426 1421 1421 1423 1425 1428 1431 1434 1437 1438 1440 1441 1442 1444 1445 1447 1448 1449 1451 1452 1453 1453 1453 1453 1454 1454 1454 1453 1453 1452 1452 1452 1451 1450 1449 1448 1448 1447 1447 1447 1446
1440 1439 1443 1446 1443 1438 1425 1423 1429 1426 1424 1424 1426 1429 1432 1434 1436 1437 1438 1439 1440 1442 1443 1445 1446 1447 1448 1449 1450 1450 1450 1450 1451 1451 1450 1450 1450 1449 1449 1448 1448 1447 1446 1445 1444 1444 1443 1443 1443
1441 1442 1441 1441 1439 1437 1432 1429 1419 1420 1422 1424 1426 1429 1431 1433 1435 1436 1437 1438 1439 1439 1441 1442 1443 1444 1445 1446 1447 1447 1447 1447 1447 1447 1447 1447 1447 1446 1445 1445 1444 1444 1443 1442 1441 1441 1440 1440 1439
1438 1438 1441 1446 1443 1437 1435 1434 1420 1420 1422 1425 1427 1430 1432 1433 1434 1435 1436 1437 1437 1438 1439 1440 1441 1442 1442 1443 1444 1444 1444 1444 1444 1444 1444 1444 1443 1443 1443 1442 1442 1441 1440 1439 1438 1438 1437 1436 1436